| time (UTC) | temp F | wind direction | speed knots | gust knots | rain 1hr in | rain 24hr in | rain mn in | humidity % | barometer mb |
| 20260506002545 | 73 | 0 | 0.0 | 0.0 | 0.00 | 0.00 | 0.00 | 55 | 1014.4 |
| 20260506002045 | 73 | 0 | 0.0 | 0.0 | 0.00 | 0.00 | 0.00 | 54 | 1014.5 |
| 20260506001600 | 73 | 0 | 0.0 | 0.0 | 0.00 | 0.00 | 0.00 | 53 | 1014.5 |
| 20260506001046 | 74 | 0 | 0.0 | 0.9 | 0.00 | 0.00 | 0.00 | 53 | 1014.3 |
| 20260506000547 | 74 | 0 | 0.0 | 6.1 | 0.00 | 0.00 | 0.00 | 52 | 1014.2 |
| 20260506000100 | 74 | 0 | 0.0 | 6.1 | 0.00 | 0.00 | 0.00 | 52 | 1014.2 |
| 20260505235545 | 75 | 0 | 0.0 | 0.0 | 0.00 | 0.00 | 0.00 | 51 | 1014.1 |
| 20260505235045 | 75 | 0 | 0.0 | 9.6 | 0.00 | 0.00 | 0.00 | 51 | 1014.1 |
| 20260505234555 | 75 | 0 | 0.0 | 9.6 | 0.00 | 0.00 | 0.00 | 51 | 1014.1 |
| 20260505234047 | 76 | 0 | 0.0 | 0.0 | 0.00 | 0.00 | 0.00 | 51 | 1014.1 |
| 20260505233547 | 76 | 0 | 0.0 | 0.0 | 0.00 | 0.00 | 0.00 | 50 | 1014.0 |
| 20260505233105 | 76 | 0 | 0.0 | 4.3 | 0.00 | 0.00 | 0.00 | 50 | 1014.1 |
| 20260505232548 | 76 | 0 | 0.0 | 4.3 | 0.00 | 0.00 | 0.00 | 49 | 1014.0 |
| 20260505232048 | 76 | 0 | 0.0 | 4.3 | 0.00 | 0.00 | 0.00 | 49 | 1014.0 |
| 20260505231554 | 77 | 0 | 0.0 | 0.0 | 0.00 | 0.00 | 0.00 | 49 | 1013.9 |
| 20260505231047 | 77 | 0 | 0.0 | 0.0 | 0.00 | 0.00 | 0.00 | 48 | 1013.9 |
| 20260505230547 | 77 | 0 | 0.0 | 3.5 | 0.00 | 0.00 | 0.00 | 48 | 1013.9 |
| 20260505230054 | 77 | 0 | 0.0 | 3.5 | 0.00 | 0.00 | 0.00 | 48 | 1013.9 |
| 20260505225548 | 77 | 189 | 0.0 | 0.0 | 0.00 | 0.00 | 0.00 | 49 | 1014.0 |
| 20260505225047 | 78 | 0 | 0.0 | 0.0 | 0.00 | 0.00 | 0.00 | 49 | 1014.0 |
| 20260505224552 | 78 | 0 | 0.0 | 0.0 | 0.00 | 0.00 | 0.00 | 49 | 1014.1 |
| 20260505224051 | 78 | 0 | 0.0 | 7.0 | 0.00 | 0.00 | 0.00 | 48 | 1014.1 |
| 20260505223547 | 78 | 0 | 0.0 | 7.0 | 0.00 | 0.00 | 0.00 | 48 | 1014.1 |
| 20260505223052 | 78 | 0 | 0.0 | 0.0 | 0.00 | 0.00 | 0.00 | 48 | 1014.2 |
| 20260505222548 | 78 | 0 | 0.0 | 0.0 | 0.00 | 0.00 | 0.00 | 48 | 1014.2 |
| 20260505222047 | 79 | 0 | 0.0 | 10.4 | 0.00 | 0.00 | 0.00 | 47 | 1014.1 |
| 20260505221552 | 79 | 0 | 0.0 | 10.4 | 0.00 | 0.00 | 0.00 | 47 | 1014.2 |
| 20260505221046 | 79 | 0 | 0.0 | 10.4 | 0.00 | 0.00 | 0.00 | 47 | 1014.1 |
| 20260505220546 | 79 | 0 | 0.0 | 10.4 | 0.00 | 0.00 | 0.00 | 46 | 1014.2 |
| 20260505220052 | 79 | 237 | 1.7 | 10.4 | 0.00 | 0.00 | 0.00 | 46 | 1014.2 |
| 20260505215547 | 80 | 197 | 0.0 | 0.0 | 0.00 | 0.00 | 0.00 | 47 | 1014.2 |
| 20260505215048 | 79 | 0 | 0.0 | 9.6 | 0.00 | 0.00 | 0.00 | 47 | 1014.2 |
| 20260505214601 | 79 | 0 | 0.0 | 9.6 | 0.00 | 0.00 | 0.00 | 47 | 1014.2 |
| 20260505214047 | 79 | 0 | 0.0 | 9.6 | 0.00 | 0.00 | 0.00 | 46 | 1014.1 |
| 20260505213547 | 80 | 0 | 0.0 | 0.0 | 0.00 | 0.00 | 0.00 | 46 | 1014.1 |
| 20260505213048 | 80 | 0 | 0.0 | 9.6 | 0.00 | 0.00 | 0.00 | 47 | 1014.0 |
| 20260505212548 | 80 | 0 | 0.9 | 9.6 | 0.00 | 0.00 | 0.00 | 47 | 1014.1 |
| 20260505212048 | 81 | 0 | 0.0 | 5.2 | 0.00 | 0.00 | 0.00 | 44 | 1014.1 |
| 20260505211553 | 81 | 277 | 0.0 | 7.8 | 0.00 | 0.00 | 0.00 | 45 | 1014.1 |
| 20260505211048 | 81 | 0 | 0.9 | 7.8 | 0.00 | 0.00 | 0.00 | 44 | 1014.1 |
| 20260505210547 | 81 | 131 | 0.0 | 11.3 | 0.00 | 0.00 | 0.00 | 44 | 1014.3 |
| 20260505210053 | 81 | 0 | 0.0 | 11.3 | 0.00 | 0.00 | 0.00 | 45 | 1014.3 |
| 20260505205547 | 81 | 148 | 0.0 | 8.7 | 0.00 | 0.00 | 0.00 | 44 | 1014.4 |
| 20260505205046 | 80 | 133 | 0.0 | 15.6 | 0.00 | 0.00 | 0.00 | 45 | 1014.4 |
| 20260505204556 | 80 | 0 | 0.9 | 15.6 | 0.00 | 0.00 | 0.00 | 44 | 1014.3 |
| 20260505204049 | 81 | 0 | 0.0 | 12.2 | 0.00 | 0.00 | 0.00 | 46 | 1014.2 |
| 20260505203547 | 81 | 0 | 0.9 | 12.2 | 0.00 | 0.00 | 0.00 | 46 | 1014.3 |
| 20260505203051 | 81 | 0 | 0.0 | 10.4 | 0.00 | 0.00 | 0.00 | 45 | 1014.3 |
| 20260505202550 | 81 | 0 | 0.0 | 10.4 | 0.00 | 0.00 | 0.00 | 47 | 1014.3 |
| 20260505202048 | 81 | 0 | 0.0 | 7.8 | 0.00 | 0.00 | 0.00 | 46 | 1014.3 |
| 20260505201555 | 80 | 0 | 0.0 | 7.0 | 0.00 | 0.00 | 0.00 | 45 | 1014.4 |
| 20260505201045 | 80 | 0 | 0.0 | 7.8 | 0.00 | 0.00 | 0.00 | 47 | 1014.6 |
| 20260505200545 | 79 | 0 | 0.0 | 7.8 | 0.00 | 0.00 | 0.00 | 46 | 1014.6 |
| 20260505200050 | 80 | 148 | 1.7 | 11.3 | 0.00 | 0.00 | 0.00 | 44 | 1014.6 |
| 20260505195546 | 82 | 0 | 0.0 | 11.3 | 0.00 | 0.00 | 0.00 | 43 | 1014.7 |
| 20260505195044 | 82 | 0 | 0.0 | 8.7 | 0.00 | 0.00 | 0.00 | 45 | 1014.9 |
| 20260505194552 | 82 | 0 | 0.0 | 8.7 | 0.00 | 0.00 | 0.00 | 44 | 1015.0 |
| 20260505194045 | 81 | 0 | 0.0 | 0.0 | 0.00 | 0.00 | 0.00 | 47 | 1015.0 |
| 20260505193544 | 80 | 0 | 0.0 | 9.6 | 0.00 | 0.00 | 0.00 | 46 | 1015.1 |
| 20260505193050 | 80 | 0 | 0.0 | 9.6 | 0.00 | 0.00 | 0.00 | 45 | 1015.1 |
| 20260505192544 | 81 | 0 | 1.7 | 9.6 | 0.00 | 0.00 | 0.00 | 44 | 1015.2 |
| 20260505192045 | 81 | 0 | 0.0 | 9.6 | 0.00 | 0.00 | 0.00 | 45 | 1015.3 |
| 20260505191602 | 81 | 0 | 0.0 | 0.0 | 0.00 | 0.00 | 0.00 | 45 | 1015.4 |
| 20260505191044 | 81 | 0 | 0.0 | 0.0 | 0.00 | 0.00 | 0.00 | 46 | 1015.5 |
| 20260505190550 | 81 | 0 | 0.0 | 0.0 | 0.00 | 0.00 | 0.00 | 44 | 1015.5 |
| 20260505190057 | 81 | 0 | 0.0 | 0.0 | 0.00 | 0.00 | 0.00 | 44 | 1015.6 |
| 20260505185545 | 82 | 0 | 0.0 | 8.7 | 0.00 | 0.00 | 0.00 | 44 | 1015.6 |
| 20260505185044 | 81 | 0 | 0.0 | 8.7 | 0.00 | 0.00 | 0.00 | 45 | 1015.8 |
| 20260505184553 | 81 | 0 | 0.0 | 10.4 | 0.00 | 0.00 | 0.00 | 42 | 1015.8 |
| 20260505184044 | 80 | 0 | 0.9 | 10.4 | 0.00 | 0.00 | 0.00 | 46 | 1015.9 |
| 20260505183545 | 80 | 121 | 3.5 | 10.4 | 0.00 | 0.00 | 0.00 | 44 | 1016.0 |
| 20260505183112 | 80 | 0 | 0.0 | 8.7 | 0.00 | 0.00 | 0.00 | 45 | 1016.0 |
| 20260505182544 | 80 | 0 | 0.0 | 12.2 | 0.00 | 0.00 | 0.00 | 49 | 1015.9 |
| 20260505182045 | 80 | 0 | 0.0 | 12.2 | 0.00 | 0.00 | 0.00 | 45 | 1016.0 |
| 20260505181551 | 81 | 0 | 1.7 | 12.2 | 0.00 | 0.00 | 0.00 | 46 | 1016.2 |
| 20260505181045 | 80 | 0 | 0.0 | 0.0 | 0.00 | 0.00 | 0.00 | 45 | 1016.1 |
| 20260505180545 | 80 | 0 | 0.0 | 7.8 | 0.00 | 0.00 | 0.00 | 49 | 1016.1 |
| 20260505180050 | 80 | 0 | 0.0 | 7.8 | 0.00 | 0.00 | 0.00 | 45 | 1016.1 |
| 20260505175545 | 80 | 248 | 1.7 | 7.0 | 0.00 | 0.00 | 0.00 | 47 | 1016.2 |
| 20260505175044 | 80 | 0 | 0.9 | 7.0 | 0.00 | 0.00 | 0.00 | 47 | 1016.1 |
| 20260505174555 | 80 | 0 | 0.0 | 2.6 | 0.00 | 0.00 | 0.00 | 47 | 1016.3 |
| 20260505174045 | 80 | 0 | 0.0 | 9.6 | 0.00 | 0.00 | 0.00 | 45 | 1016.3 |
| 20260505173545 | 80 | 0 | 0.9 | 9.6 | 0.00 | 0.00 | 0.00 | 48 | 1016.4 |
| 20260505173059 | 80 | 0 | 0.0 | 8.7 | 0.00 | 0.00 | 0.00 | 46 | 1016.3 |
| 20260505172546 | 80 | 0 | 0.0 | 8.7 | 0.00 | 0.00 | 0.00 | 46 | 1016.4 |
| 20260505172043 | 79 | 0 | 0.9 | 8.7 | 0.00 | 0.00 | 0.00 | 47 | 1016.5 |
| 20260505171600 | 79 | 0 | 0.0 | 0.0 | 0.00 | 0.00 | 0.00 | 47 | 1016.4 |
| 20260505171046 | 80 | 0 | 0.0 | 7.8 | 0.00 | 0.00 | 0.00 | 49 | 1016.5 |
| 20260505170544 | 79 | 0 | 0.9 | 7.8 | 0.00 | 0.00 | 0.00 | 48 | 1016.5 |
| 20260505170052 | 79 | 0 | 0.0 | 13.9 | 0.00 | 0.00 | 0.00 | 49 | 1016.5 |
| 20260505165544 | 80 | 0 | 0.0 | 13.9 | 0.00 | 0.00 | 0.00 | 52 | 1016.6 |
| 20260505165043 | 79 | 0 | 0.0 | 7.8 | 0.00 | 0.00 | 0.00 | 49 | 1016.7 |
| 20260505164551 | 79 | 0 | 0.0 | 13.9 | 0.00 | 0.00 | 0.00 | 52 | 1016.7 |
| 20260505164043 | 78 | 0 | 4.3 | 13.9 | 0.00 | 0.00 | 0.00 | 50 | 1016.9 |
| 20260505163543 | 79 | 0 | 2.6 | 10.4 | 0.00 | 0.00 | 0.00 | 51 | 1016.9 |
| 20260505163050 | 78 | 0 | 0.0 | 9.6 | 0.00 | 0.00 | 0.00 | 53 | 1016.8 |
| 20260505162545 | 78 | 253 | 0.9 | 9.6 | 0.00 | 0.00 | 0.00 | 52 | 1016.9 |
| 20260505162043 | 78 | 140 | 0.0 | 9.6 | 0.00 | 0.00 | 0.00 | 54 | 1017.0 |
| 20260505161615 | 77 | 0 | 0.0 | 7.8 | 0.00 | 0.00 | 0.00 | 53 | 1017.2 |
| 20260505161045 | 78 | 0 | 0.0 | 12.2 | 0.00 | 0.00 | 0.00 | 51 | 1017.2 |
| 20260505160544 | 78 | 0 | 0.9 | 12.2 | 0.00 | 0.00 | 0.00 | 51 | 1017.3 |
| 20260505153051 | 77 | 0 | 0.0 | 7.8 | 0.00 | 0.00 | 0.00 | 55 | 1017.5 |
| 20260505152541 | 77 | 0 | 0.0 | 9.6 | 0.00 | 0.00 | 0.00 | 57 | 1017.5 |
| 20260505152045 | 76 | 0 | 0.0 | 9.6 | 0.00 | 0.00 | 0.00 | 56 | 1017.6 |
| 20260505151550 | 76 | 0 | 0.0 | 7.8 | 0.00 | 0.00 | 0.00 | 57 | 1017.5 |
| 20260505151042 | 75 | 0 | 0.0 | 10.4 | 0.00 | 0.00 | 0.00 | 57 | 1017.6 |
| 20260505150542 | 75 | 0 | 2.6 | 10.4 | 0.00 | 0.00 | 0.00 | 55 | 1017.6 |
| 20260505140546 | 71 | 0 | 0.0 | 7.0 | 0.00 | 0.00 | 0.00 | 66 | 1017.6 |
| 20260505124553 | 63 | 0 | 0.0 | 0.0 | 0.00 | 0.00 | 0.00 | 76 | 1017.7 |
| 20260505124049 | 63 | 0 | 0.0 | 0.0 | 0.00 | 0.00 | 0.00 | 77 | 1017.7 |
| 20260505123549 | 62 | 0 | 0.0 | 0.0 | 0.00 | 0.00 | 0.00 | 77 | 1017.7 |
| 20260505123053 | 61 | 0 | 0.0 | 0.0 | 0.00 | 0.00 | 0.00 | 79 | 1017.7 |
| 20260505122547 | 61 | 0 | 0.0 | 0.0 | 0.00 | 0.00 | 0.00 | 79 | 1017.7 |
| 20260505122048 | 60 | 0 | 0.0 | 0.0 | 0.00 | 0.00 | 0.00 | 80 | 1017.6 |
| 20260505121557 | 60 | 0 | 0.0 | 0.0 | 0.00 | 0.00 | 0.00 | 81 | 1017.5 |
| 20260505121048 | 59 | 0 | 0.0 | 0.0 | 0.00 | 0.00 | 0.00 | 81 | 1017.6 |
| 20260505120549 | 58 | 0 | 0.0 | 0.0 | 0.00 | 0.00 | 0.00 | 82 | 1017.5 |
| 20260505120111 | 58 | 0 | 0.0 | 0.0 | 0.00 | 0.00 | 0.00 | 83 | 1017.4 |
| 20260505115546 | 57 | 0 | 0.0 | 0.0 | 0.00 | 0.00 | 0.00 | 84 | 1017.4 |
| 20260505115047 | 57 | 0 | 0.0 | 0.0 | 0.00 | 0.00 | 0.00 | 85 | 1017.5 |
| 20260505114552 | 56 | 0 | 0.0 | 0.0 | 0.00 | 0.00 | 0.00 | 87 | 1017.4 |
| 20260505114047 | 56 | 0 | 0.0 | 0.0 | 0.00 | 0.00 | 0.00 | 88 | 1017.3 |
| 20260505113546 | 55 | 0 | 0.0 | 0.0 | 0.00 | 0.00 | 0.00 | 89 | 1017.3 |
| 20260505113049 | 55 | 0 | 0.0 | 0.0 | 0.00 | 0.00 | 0.00 | 89 | 1017.2 |
| 20260505112547 | 54 | 0 | 0.0 | 0.0 | 0.00 | 0.00 | 0.00 | 90 | 1017.3 |
| 20260505112044 | 53 | 0 | 0.0 | 0.0 | 0.00 | 0.00 | 0.00 | 90 | 1017.2 |
| 20260505111550 | 52 | 0 | 0.0 | 0.0 | 0.00 | 0.00 | 0.00 | 90 | 1017.1 |
| 20260505111048 | 52 | 0 | 0.0 | 0.0 | 0.00 | 0.00 | 0.00 | 90 | 1016.9 |
| 20260505110548 | 52 | 0 | 0.0 | 0.0 | 0.00 | 0.00 | 0.00 | 89 | 1016.9 |
| 20260505102046 | 53 | 0 | 0.0 | 0.0 | 0.00 | 0.00 | 0.00 | 87 | 1016.4 |
| 20260505101555 | 53 | 0 | 0.0 | 0.0 | 0.00 | 0.00 | 0.00 | 86 | 1016.3 |
| 20260505101044 | 53 | 0 | 0.0 | 0.0 | 0.00 | 0.00 | 0.00 | 86 | 1016.4 |
| 20260505100544 | 53 | 0 | 0.0 | 0.0 | 0.00 | 0.00 | 0.00 | 85 | 1016.3 |
| 20260505100057 | 53 | 0 | 0.0 | 0.0 | 0.00 | 0.00 | 0.00 | 85 | 1016.3 |
| 20260505095543 | 53 | 0 | 0.0 | 0.0 | 0.00 | 0.00 | 0.00 | 84 | 1016.3 |
| 20260505095042 | 53 | 0 | 0.0 | 0.0 | 0.00 | 0.00 | 0.00 | 84 | 1016.2 |
| 20260505094555 | 54 | 0 | 0.0 | 0.0 | 0.00 | 0.00 | 0.00 | 83 | 1016.2 |
| 20260505094049 | 54 | 0 | 0.0 | 0.0 | 0.00 | 0.00 | 0.00 | 83 | 1016.3 |
| 20260505093543 | 54 | 0 | 0.0 | 0.0 | 0.00 | 0.00 | 0.00 | 83 | 1016.2 |
| 20260505093057 | 54 | 0 | 0.0 | 0.0 | 0.00 | 0.00 | 0.00 | 83 | 1016.2 |
| 20260505092546 | 55 | 0 | 0.0 | 0.0 | 0.00 | 0.00 | 0.00 | 82 | 1016.1 |
| 20260505092043 | 55 | 0 | 0.0 | 0.0 | 0.00 | 0.00 | 0.00 | 82 | 1016.1 |
| 20260505091606 | 55 | 0 | 0.0 | 0.0 | 0.00 | 0.00 | 0.00 | 82 | 1016.1 |
| 20260505091042 | 55 | 0 | 0.0 | 0.0 | 0.00 | 0.00 | 0.00 | 81 | 1016.0 |
| 20260505090542 | 55 | 0 | 0.0 | 0.0 | 0.00 | 0.00 | 0.00 | 81 | 1015.8 |
| 20260505090052 | 56 | 0 | 0.0 | 0.0 | 0.00 | 0.00 | 0.00 | 80 | 1015.9 |
| 20260505085544 | 56 | 0 | 0.0 | 0.0 | 0.00 | 0.00 | 0.00 | 80 | 1015.9 |
| 20260505085043 | 56 | 0 | 0.0 | 0.0 | 0.00 | 0.00 | 0.00 | 79 | 1015.8 |
| 20260505084552 | 57 | 0 | 0.0 | 0.0 | 0.00 | 0.00 | 0.00 | 79 | 1015.7 |
| 20260505084045 | 57 | 0 | 0.0 | 0.0 | 0.00 | 0.00 | 0.00 | 78 | 1015.7 |
| 20260505083544 | 57 | 0 | 0.0 | 0.0 | 0.00 | 0.00 | 0.00 | 78 | 1015.8 |
| 20260505083052 | 57 | 0 | 0.0 | 0.0 | 0.00 | 0.00 | 0.00 | 78 | 1015.6 |
| 20260505082545 | 57 | 0 | 0.0 | 0.0 | 0.00 | 0.00 | 0.00 | 78 | 1015.6 |
| 20260505082043 | 57 | 0 | 0.0 | 0.0 | 0.00 | 0.00 | 0.00 | 78 | 1015.6 |
| 20260505081549 | 57 | 0 | 0.0 | 0.0 | 0.00 | 0.00 | 0.00 | 78 | 1015.6 |
| 20260505081042 | 57 | 0 | 0.0 | 0.0 | 0.00 | 0.00 | 0.00 | 78 | 1015.6 |
| 20260505080545 | 57 | 0 | 0.0 | 0.0 | 0.00 | 0.00 | 0.00 | 78 | 1015.6 |
| 20260505080051 | 57 | 0 | 0.0 | 0.0 | 0.00 | 0.00 | 0.00 | 78 | 1015.6 |
| 20260505075542 | 57 | 0 | 0.0 | 0.0 | 0.00 | 0.00 | 0.00 | 78 | 1015.6 |
| 20260505075041 | 57 | 0 | 0.0 | 0.0 | 0.00 | 0.00 | 0.00 | 78 | 1015.6 |
| 20260505074551 | 57 | 0 | 0.0 | 0.0 | 0.00 | 0.00 | 0.00 | 77 | 1015.5 |
| 20260505074047 | 58 | 0 | 0.0 | 0.0 | 0.00 | 0.00 | 0.00 | 77 | 1015.5 |
| 20260505073547 | 58 | 0 | 0.0 | 0.0 | 0.00 | 0.00 | 0.00 | 76 | 1015.6 |
| 20260505073103 | 58 | 0 | 0.0 | 0.0 | 0.00 | 0.00 | 0.00 | 76 | 1015.6 |
| 20260505072546 | 58 | 0 | 0.0 | 0.0 | 0.00 | 0.00 | 0.00 | 76 | 1015.6 |
| 20260505072046 | 58 | 0 | 0.0 | 0.0 | 0.00 | 0.00 | 0.00 | 75 | 1015.5 |
| 20260505071559 | 58 | 0 | 0.0 | 0.0 | 0.00 | 0.00 | 0.00 | 75 | 1015.5 |
| 20260505071049 | 58 | 0 | 0.0 | 0.0 | 0.00 | 0.00 | 0.00 | 75 | 1015.5 |
| 20260505070547 | 59 | 0 | 0.0 | 0.0 | 0.00 | 0.00 | 0.00 | 74 | 1015.5 |
| 20260505070055 | 59 | 0 | 0.0 | 0.0 | 0.00 | 0.00 | 0.00 | 74 | 1015.5 |
| 20260505065547 | 59 | 0 | 0.0 | 0.0 | 0.00 | 0.00 | 0.00 | 74 | 1015.4 |
| 20260505065047 | 59 | 0 | 0.0 | 0.0 | 0.00 | 0.00 | 0.00 | 74 | 1015.5 |
| 20260505064551 | 59 | 0 | 0.0 | 0.0 | 0.00 | 0.00 | 0.00 | 73 | 1015.4 |
| 20260505064046 | 59 | 0 | 0.0 | 0.0 | 0.00 | 0.00 | 0.00 | 73 | 1015.5 |
| 20260505063547 | 59 | 0 | 0.0 | 0.0 | 0.00 | 0.00 | 0.00 | 73 | 1015.5 |
| 20260505063052 | 59 | 0 | 0.0 | 0.0 | 0.00 | 0.00 | 0.00 | 73 | 1015.4 |
| 20260505062548 | 60 | 0 | 0.0 | 0.0 | 0.00 | 0.00 | 0.00 | 72 | 1015.4 |
| 20260505062047 | 60 | 0 | 0.0 | 0.0 | 0.00 | 0.00 | 0.00 | 72 | 1015.4 |
| 20260505061554 | 60 | 0 | 0.0 | 0.0 | 0.00 | 0.00 | 0.00 | 71 | 1015.5 |
| 20260505061048 | 60 | 0 | 0.0 | 0.0 | 0.00 | 0.00 | 0.00 | 71 | 1015.5 |
| 20260505060548 | 60 | 0 | 0.0 | 0.0 | 0.00 | 0.00 | 0.00 | 71 | 1015.5 |
| 20260505060054 | 60 | 0 | 0.0 | 0.0 | 0.00 | 0.00 | 0.00 | 71 | 1015.6 |
| 20260505055548 | 60 | 0 | 0.0 | 0.0 | 0.00 | 0.00 | 0.00 | 70 | 1015.7 |
| 20260505055047 | 60 | 0 | 0.0 | 0.0 | 0.00 | 0.00 | 0.00 | 70 | 1015.8 |
| 20260505054611 | 61 | 0 | 0.0 | 0.0 | 0.00 | 0.00 | 0.00 | 70 | 1015.9 |
| 20260505054048 | 61 | 0 | 0.0 | 0.0 | 0.00 | 0.00 | 0.00 | 69 | 1015.9 |
| 20260505053547 | 61 | 0 | 0.0 | 0.0 | 0.00 | 0.00 | 0.00 | 69 | 1015.9 |
| 20260505053107 | 61 | 0 | 0.0 | 0.0 | 0.00 | 0.00 | 0.00 | 68 | 1015.9 |
| 20260505052547 | 62 | 0 | 0.0 | 0.0 | 0.00 | 0.00 | 0.00 | 68 | 1015.8 |
| 20260505052047 | 62 | 0 | 0.0 | 0.0 | 0.00 | 0.00 | 0.00 | 68 | 1015.8 |
| 20260505051551 | 62 | 0 | 0.0 | 0.0 | 0.00 | 0.00 | 0.00 | 68 | 1015.9 |
| 20260505051047 | 62 | 0 | 0.0 | 0.0 | 0.00 | 0.00 | 0.00 | 68 | 1015.9 |
| 20260505050546 | 62 | 0 | 0.0 | 0.0 | 0.00 | 0.00 | 0.00 | 68 | 1015.9 |
| 20260505041559 | 63 | 0 | 0.0 | 0.0 | 0.00 | 0.00 | 0.00 | 67 | 1015.8 |
| 20260505041047 | 63 | 0 | 0.0 | 0.0 | 0.00 | 0.00 | 0.00 | 66 | 1015.8 |
| 20260505040547 | 63 | 0 | 0.0 | 0.0 | 0.00 | 0.00 | 0.00 | 66 | 1015.9 |
| 20260505040058 | 63 | 0 | 0.0 | 0.0 | 0.00 | 0.00 | 0.00 | 66 | 1015.7 |
| 20260505035546 | 64 | 0 | 0.0 | 0.0 | 0.00 | 0.00 | 0.00 | 66 | 1015.8 |
| 20260505035047 | 64 | 0 | 0.0 | 0.0 | 0.00 | 0.00 | 0.00 | 65 | 1015.8 |
| 20260505034556 | 64 | 0 | 0.0 | 0.0 | 0.00 | 0.00 | 0.00 | 65 | 1015.8 |
| 20260505034049 | 64 | 0 | 0.0 | 0.0 | 0.00 | 0.00 | 0.00 | 65 | 1015.7 |
| 20260505033547 | 64 | 0 | 0.0 | 0.0 | 0.00 | 0.00 | 0.00 | 65 | 1015.8 |
| 20260505033052 | 64 | 0 | 0.0 | 0.0 | 0.00 | 0.00 | 0.00 | 64 | 1015.8 |
| 20260505032546 | 64 | 0 | 0.0 | 0.0 | 0.00 | 0.00 | 0.00 | 64 | 1015.8 |
| 20260505032046 | 64 | 0 | 0.0 | 0.0 | 0.00 | 0.00 | 0.00 | 64 | 1015.8 |
| 20260505031608 | 64 | 0 | 0.0 | 0.0 | 0.00 | 0.00 | 0.00 | 64 | 1015.7 |
| 20260505031046 | 65 | 0 | 0.0 | 0.0 | 0.00 | 0.00 | 0.00 | 63 | 1015.8 |
| 20260505030548 | 65 | 0 | 0.0 | 0.0 | 0.00 | 0.00 | 0.00 | 63 | 1015.8 |
| 20260505030055 | 65 | 0 | 0.0 | 0.0 | 0.00 | 0.00 | 0.00 | 63 | 1015.7 |
| 20260505025547 | 65 | 0 | 0.0 | 0.0 | 0.00 | 0.00 | 0.00 | 62 | 1015.7 |
| 20260505025047 | 65 | 0 | 0.0 | 7.0 | 0.00 | 0.00 | 0.00 | 62 | 1015.8 |
| 20260505024557 | 66 | 0 | 0.0 | 7.0 | 0.00 | 0.00 | 0.00 | 62 | 1015.8 |
| 20260505024046 | 66 | 0 | 0.0 | 0.0 | 0.00 | 0.00 | 0.00 | 61 | 1015.8 |
| 20260505023550 | 66 | 0 | 0.0 | 0.0 | 0.00 | 0.00 | 0.00 | 62 | 1015.8 |
| 20260505023105 | 66 | 0 | 0.0 | 0.0 | 0.00 | 0.00 | 0.00 | 61 | 1015.8 |
| 20260505022548 | 66 | 0 | 0.0 | 0.0 | 0.00 | 0.00 | 0.00 | 61 | 1015.7 |
| 20260505022046 | 66 | 0 | 0.0 | 0.0 | 0.00 | 0.00 | 0.00 | 61 | 1015.7 |
| 20260505021553 | 66 | 0 | 0.0 | 0.0 | 0.00 | 0.00 | 0.00 | 61 | 1015.7 |
| 20260505021047 | 67 | 0 | 0.0 | 0.0 | 0.00 | 0.00 | 0.00 | 61 | 1015.6 |
| 20260505020550 | 67 | 0 | 0.0 | 0.9 | 0.00 | 0.00 | 0.00 | 60 | 1015.6 |
| 20260505020053 | 67 | 0 | 0.0 | 0.9 | 0.00 | 0.00 | 0.00 | 60 | 1015.6 |
| 20260505015547 | 67 | 0 | 0.0 | 8.7 | 0.00 | 0.00 | 0.00 | 60 | 1015.6 |
| 20260505015047 | 68 | 0 | 0.0 | 8.7 | 0.00 | 0.00 | 0.00 | 60 | 1015.5 |
| 20260505014605 | 68 | 0 | 0.0 | 3.5 | 0.00 | 0.00 | 0.00 | 60 | 1015.4 |
| 20260505014046 | 68 | 0 | 0.0 | 3.5 | 0.00 | 0.00 | 0.00 | 60 | 1015.4 |
| 20260505013546 | 68 | 0 | 0.0 | 9.6 | 0.00 | 0.00 | 0.00 | 59 | 1015.3 |
| 20260505013106 | 69 | 0 | 0.0 | 9.6 | 0.00 | 0.00 | 0.00 | 59 | 1015.1 |
| 20260505012547 | 69 | 0 | 0.9 | 9.6 | 0.00 | 0.00 | 0.00 | 59 | 1015.0 |
| 20260505012048 | 69 | 0 | 0.0 | 7.0 | 0.00 | 0.00 | 0.00 | 59 | 1015.0 |
| 20260505011551 | 69 | 0 | 0.0 | 7.0 | 0.00 | 0.00 | 0.00 | 59 | 1014.9 |
| 20260505011048 | 69 | 0 | 0.0 | 0.0 | 0.00 | 0.00 | 0.00 | 58 | 1014.9 |
| 20260505010547 | 70 | 0 | 0.0 | 0.0 | 0.00 | 0.00 | 0.00 | 58 | 1014.7 |
| 20260505010049 | 70 | 0 | 0.0 | 0.0 | 0.00 | 0.00 | 0.00 | 57 | 1014.5 |
| 20260505005547 | 70 | 0 | 0.0 | 0.0 | 0.00 | 0.00 | 0.00 | 55 | 1014.4 |
| 20260505005047 | 70 | 0 | 0.0 | 3.5 | 0.00 | 0.00 | 0.00 | 54 | 1014.4 |
| 20260505004556 | 70 | 0 | 0.0 | 3.5 | 0.00 | 0.00 | 0.00 | 52 | 1014.3 |
| 20260505004046 | 70 | 0 | 0.0 | 0.0 | 0.00 | 0.00 | 0.00 | 51 | 1014.0 |
| 20260505003546 | 70 | 0 | 0.0 | 0.0 | 0.00 | 0.00 | 0.00 | 51 | 1013.9 |
| 20260505003057 | 70 | 0 | 0.0 | 0.0 | 0.00 | 0.00 | 0.00 | 48 | 1013.9 |